Year,Month,Day,Hour,Minute,Value (Times are PST for temperature in C)
2015,07,04,00,00,20.20
2015,07,04,00,01,20.20
2015,07,04,00,02,20.10
2015,07,04,00,03,20.10
2015,07,04,00,04,20.10
2015,07,04,00,05,20.10
2015,07,04,00,06,20.10
2015,07,04,00,07,20.00
2015,07,04,00,08,19.90
2015,07,04,00,09,19.90
2015,07,04,00,10,19.80
2015,07,04,00,11,19.80
2015,07,04,00,12,19.70
2015,07,04,00,13,19.70
2015,07,04,00,14,19.70
2015,07,04,00,15,19.70
2015,07,04,00,16,19.60
2015,07,04,00,17,19.60
2015,07,04,00,18,19.60
2015,07,04,00,19,19.60
2015,07,04,00,20,19.60
2015,07,04,00,21,19.60
2015,07,04,00,22,19.60
2015,07,04,00,23,19.50
2015,07,04,00,24,19.50
2015,07,04,00,25,19.40
2015,07,04,00,26,19.40
2015,07,04,00,27,19.40
2015,07,04,00,28,19.40
2015,07,04,00,29,19.40
2015,07,04,00,30,19.30
2015,07,04,00,31,19.30
2015,07,04,00,32,19.30
2015,07,04,00,33,19.20
2015,07,04,00,34,19.20
2015,07,04,00,35,19.20
2015,07,04,00,36,19.20
2015,07,04,00,37,19.20
2015,07,04,00,38,19.20
2015,07,04,00,39,19.10
2015,07,04,00,40,19.10
2015,07,04,00,41,19.10
2015,07,04,00,42,19.10
2015,07,04,00,43,19.10
2015,07,04,00,44,19.10
2015,07,04,00,45,19.10
2015,07,04,00,46,19.10
2015,07,04,00,47,19.00
2015,07,04,00,48,19.00
2015,07,04,00,49,18.90
2015,07,04,00,50,18.90
2015,07,04,00,51,18.90
2015,07,04,00,52,18.80
2015,07,04,00,53,18.80
2015,07,04,00,54,18.80
2015,07,04,00,55,18.80
2015,07,04,00,56,18.80
2015,07,04,00,57,18.80
2015,07,04,00,58,18.70
2015,07,04,00,59,18.70
2015,07,04,01,00,18.70
2015,07,04,01,01,18.70
2015,07,04,01,02,18.70
2015,07,04,01,03,18.70
2015,07,04,01,04,18.70
2015,07,04,01,05,18.70
2015,07,04,01,06,18.70
2015,07,04,01,07,18.70
2015,07,04,01,08,18.70
2015,07,04,01,09,18.70
2015,07,04,01,10,18.70
2015,07,04,01,11,18.70
2015,07,04,01,12,18.70
2015,07,04,01,13,18.70
2015,07,04,01,14,18.80
2015,07,04,01,15,18.80
2015,07,04,01,16,18.80
2015,07,04,01,17,18.80
2015,07,04,01,18,18.80
2015,07,04,01,19,18.80
2015,07,04,01,20,18.80
2015,07,04,01,21,18.80
2015,07,04,01,22,18.80
2015,07,04,01,23,18.80
2015,07,04,01,24,18.80
2015,07,04,01,25,18.80
2015,07,04,01,26,18.80
2015,07,04,01,27,18.80
2015,07,04,01,28,18.80
2015,07,04,01,29,18.80
2015,07,04,01,30,18.70
2015,07,04,01,31,18.70
2015,07,04,01,32,18.70
2015,07,04,01,33,18.70
2015,07,04,01,34,18.60
2015,07,04,01,35,18.60
2015,07,04,01,36,18.60
2015,07,04,01,37,18.50
2015,07,04,01,38,18.50
2015,07,04,01,39,18.40
2015,07,04,01,40,18.40
2015,07,04,01,41,18.30
2015,07,04,01,42,18.30
2015,07,04,01,43,18.30
2015,07,04,01,44,18.20
2015,07,04,01,45,18.10
2015,07,04,01,46,18.10
2015,07,04,01,47,18.00
2015,07,04,01,48,18.00
2015,07,04,01,49,17.90
2015,07,04,01,50,17.80
2015,07,04,01,51,17.80
2015,07,04,01,52,17.80
2015,07,04,01,53,17.70
2015,07,04,01,54,17.70
2015,07,04,01,55,17.70
2015,07,04,01,56,17.60
2015,07,04,01,57,17.60
2015,07,04,01,58,17.60
2015,07,04,01,59,17.50
2015,07,04,02,00,17.50
2015,07,04,02,01,17.40
2015,07,04,02,02,17.40
2015,07,04,02,03,17.40
2015,07,04,02,04,17.30
2015,07,04,02,05,17.30
2015,07,04,02,06,17.30
2015,07,04,02,07,17.30
2015,07,04,02,08,17.20
2015,07,04,02,09,17.20
2015,07,04,02,10,17.20
2015,07,04,02,11,17.20
2015,07,04,02,12,17.20
2015,07,04,02,13,17.10
2015,07,04,02,14,17.10
2015,07,04,02,15,17.10
2015,07,04,02,16,17.10
2015,07,04,02,17,17.10
2015,07,04,02,18,17.10
2015,07,04,02,19,17.10
2015,07,04,02,20,17.10
2015,07,04,02,21,17.10
2015,07,04,02,22,17.10
2015,07,04,02,23,17.10
2015,07,04,02,24,17.10
2015,07,04,02,25,17.10
2015,07,04,02,26,17.10
2015,07,04,02,27,17.10
2015,07,04,02,28,17.10
2015,07,04,02,29,17.00
2015,07,04,02,30,17.00
2015,07,04,02,31,17.00
2015,07,04,02,32,17.00
2015,07,04,02,33,16.90
2015,07,04,02,34,16.90
2015,07,04,02,35,16.90
2015,07,04,02,36,16.90
2015,07,04,02,37,16.90
2015,07,04,02,38,16.80
2015,07,04,02,39,16.80
2015,07,04,02,40,16.80
2015,07,04,02,41,16.80
2015,07,04,02,42,16.80
2015,07,04,02,43,16.80
2015,07,04,02,44,16.70
2015,07,04,02,45,16.70
2015,07,04,02,46,16.70
2015,07,04,02,47,16.70
2015,07,04,02,48,16.70
2015,07,04,02,49,16.60
2015,07,04,02,50,16.60
2015,07,04,02,51,16.60
2015,07,04,02,52,16.60
2015,07,04,02,53,16.50
2015,07,04,02,54,16.50
2015,07,04,02,55,16.50
2015,07,04,02,56,16.40
2015,07,04,02,57,16.40
2015,07,04,02,58,16.40
2015,07,04,02,59,16.40
2015,07,04,03,00,16.40
2015,07,04,03,01,16.40
2015,07,04,03,02,16.30
2015,07,04,03,03,16.30
2015,07,04,03,04,16.30
2015,07,04,03,05,16.30
2015,07,04,03,06,16.30
2015,07,04,03,07,16.30
2015,07,04,03,08,16.30
2015,07,04,03,09,16.20
2015,07,04,03,10,16.20
2015,07,04,03,11,16.20
2015,07,04,03,12,16.20
2015,07,04,03,13,16.20
2015,07,04,03,14,16.20
2015,07,04,03,15,16.20
2015,07,04,03,16,16.20
2015,07,04,03,17,16.20
2015,07,04,03,18,16.20
2015,07,04,03,19,16.20
2015,07,04,03,20,16.20
2015,07,04,03,21,16.20
2015,07,04,03,22,16.20
2015,07,04,03,23,16.20
2015,07,04,03,24,16.20
2015,07,04,03,25,16.20
2015,07,04,03,26,16.20
2015,07,04,03,27,16.20
2015,07,04,03,28,16.20
2015,07,04,03,29,16.10
2015,07,04,03,30,16.10
2015,07,04,03,31,16.10
2015,07,04,03,32,16.10
2015,07,04,03,33,16.10
2015,07,04,03,34,16.10
2015,07,04,03,35,16.10
2015,07,04,03,36,16.10
2015,07,04,03,37,16.10
2015,07,04,03,38,16.10
2015,07,04,03,39,16.10
2015,07,04,03,40,16.10
2015,07,04,03,41,16.00
2015,07,04,03,42,16.00
2015,07,04,03,43,16.00
2015,07,04,03,44,16.00
2015,07,04,03,45,16.00
2015,07,04,03,46,16.00
2015,07,04,03,47,16.00
2015,07,04,03,48,16.00
2015,07,04,03,49,16.00
2015,07,04,03,50,16.00
2015,07,04,03,51,16.00
2015,07,04,03,52,16.00
2015,07,04,03,53,16.00
2015,07,04,03,54,16.00
2015,07,04,03,55,16.00
2015,07,04,03,56,16.00
2015,07,04,03,57,16.00
2015,07,04,03,58,16.00
2015,07,04,03,59,16.00
2015,07,04,04,00,16.00
2015,07,04,04,01,16.00
2015,07,04,04,02,16.00
2015,07,04,04,03,16.00
2015,07,04,04,04,16.00
2015,07,04,04,05,16.00
2015,07,04,04,06,16.00
2015,07,04,04,07,15.90
2015,07,04,04,08,15.90
2015,07,04,04,09,15.90
2015,07,04,04,10,15.90
2015,07,04,04,11,15.90
2015,07,04,04,12,15.90
2015,07,04,04,13,15.80
2015,07,04,04,14,15.80
2015,07,04,04,15,15.80
2015,07,04,04,16,15.80
2015,07,04,04,17,15.80
2015,07,04,04,18,15.80
2015,07,04,04,19,15.80
2015,07,04,04,20,15.80
2015,07,04,04,21,15.80
2015,07,04,04,22,15.80
2015,07,04,04,23,15.80
2015,07,04,04,24,15.80
2015,07,04,04,25,15.80
2015,07,04,04,26,15.80
2015,07,04,04,27,15.80
2015,07,04,04,28,15.80
2015,07,04,04,29,15.80
2015,07,04,04,30,15.80
2015,07,04,04,31,15.70
2015,07,04,04,32,15.70
2015,07,04,04,33,15.70
2015,07,04,04,34,15.70
2015,07,04,04,35,15.70
2015,07,04,04,36,15.70
2015,07,04,04,37,15.70
2015,07,04,04,38,15.70
2015,07,04,04,39,15.70
2015,07,04,04,40,15.70
2015,07,04,04,41,15.60
2015,07,04,04,42,15.60
2015,07,04,04,43,15.60
2015,07,04,04,44,15.60
2015,07,04,04,45,15.60
2015,07,04,04,46,15.60
2015,07,04,04,47,15.60
2015,07,04,04,48,15.50
2015,07,04,04,49,15.50
2015,07,04,04,50,15.50
2015,07,04,04,51,15.50
2015,07,04,04,52,15.50
2015,07,04,04,53,15.40
2015,07,04,04,54,15.40
2015,07,04,04,55,15.40
2015,07,04,04,56,15.40
2015,07,04,04,57,15.40
2015,07,04,04,58,15.40
2015,07,04,04,59,15.40
2015,07,04,05,00,15.30
2015,07,04,05,01,15.30
2015,07,04,05,02,15.30
2015,07,04,05,03,15.30
2015,07,04,05,04,15.30
2015,07,04,05,05,15.30
2015,07,04,05,06,15.30
2015,07,04,05,07,15.20
2015,07,04,05,08,15.20
2015,07,04,05,09,15.20
2015,07,04,05,10,15.10
2015,07,04,05,11,15.10
2015,07,04,05,12,15.10
2015,07,04,05,13,15.00
2015,07,04,05,14,15.00
2015,07,04,05,15,15.00
2015,07,04,05,16,14.90
2015,07,04,05,17,14.90
2015,07,04,05,18,14.90
2015,07,04,05,19,14.80
2015,07,04,05,20,14.80
2015,07,04,05,21,14.80
2015,07,04,05,22,14.80
2015,07,04,05,23,14.70
2015,07,04,05,24,14.70
2015,07,04,05,25,14.70
2015,07,04,05,26,14.70
2015,07,04,05,27,14.70
2015,07,04,05,28,14.60
2015,07,04,05,29,14.60
2015,07,04,05,30,14.60
2015,07,04,05,31,14.60
2015,07,04,05,32,14.60
2015,07,04,05,33,14.60
2015,07,04,05,34,14.60
2015,07,04,05,35,14.60
2015,07,04,05,36,14.60
2015,07,04,05,37,14.60
2015,07,04,05,38,14.60
2015,07,04,05,39,14.60
2015,07,04,05,40,14.50
2015,07,04,05,41,14.50
2015,07,04,05,42,14.50
2015,07,04,05,43,14.50
2015,07,04,05,44,14.50
2015,07,04,05,45,14.50
2015,07,04,05,46,14.40
2015,07,04,05,47,14.40
2015,07,04,05,48,14.40
2015,07,04,05,49,14.40
2015,07,04,05,50,14.40
2015,07,04,05,51,14.40
2015,07,04,05,52,14.30
2015,07,04,05,53,14.40
2015,07,04,05,54,14.40
2015,07,04,05,55,14.40
2015,07,04,05,56,14.40
2015,07,04,05,57,14.40
2015,07,04,05,58,14.40
2015,07,04,05,59,14.40
2015,07,04,06,00,14.40
2015,07,04,06,01,14.40
2015,07,04,06,02,14.40
2015,07,04,06,03,14.40
2015,07,04,06,04,14.40
2015,07,04,06,05,14.40
2015,07,04,06,06,14.40
2015,07,04,06,07,14.40
2015,07,04,06,08,14.40
2015,07,04,06,09,14.40
2015,07,04,06,10,14.40
2015,07,04,06,11,14.40
2015,07,04,06,12,14.40
2015,07,04,06,13,14.40
2015,07,04,06,14,14.40
2015,07,04,06,15,14.40
2015,07,04,06,16,14.50
2015,07,04,06,17,14.50
2015,07,04,06,18,14.50
2015,07,04,06,19,14.50
2015,07,04,06,20,14.60
2015,07,04,06,21,14.60
2015,07,04,06,22,14.60
2015,07,04,06,23,14.60
2015,07,04,06,24,14.70
2015,07,04,06,25,14.70
2015,07,04,06,26,14.70
2015,07,04,06,27,14.80
2015,07,04,06,28,14.80
2015,07,04,06,29,14.90
2015,07,04,06,30,15.00
2015,07,04,06,31,15.00
2015,07,04,06,32,15.10
2015,07,04,06,33,15.10
2015,07,04,06,34,15.20
2015,07,04,06,35,15.20
2015,07,04,06,36,15.20
2015,07,04,06,37,15.30
2015,07,04,06,38,15.30
2015,07,04,06,39,15.40
2015,07,04,06,40,15.50
2015,07,04,06,41,15.60
2015,07,04,06,42,15.70
2015,07,04,06,43,15.80
2015,07,04,06,44,15.80
2015,07,04,06,45,15.90
2015,07,04,06,46,15.90
2015,07,04,06,47,15.90
2015,07,04,06,48,16.00
2015,07,04,06,49,16.00
2015,07,04,06,50,16.00
2015,07,04,06,51,16.10
2015,07,04,06,52,16.10
2015,07,04,06,53,16.10
2015,07,04,06,54,16.10
2015,07,04,06,55,16.20
2015,07,04,06,56,16.20
2015,07,04,06,57,16.20
2015,07,04,06,58,16.30
2015,07,04,06,59,16.30
2015,07,04,07,00,16.30
2015,07,04,07,01,16.40
2015,07,04,07,02,16.40
2015,07,04,07,03,16.40
2015,07,04,07,04,16.50
2015,07,04,07,05,16.50
2015,07,04,07,06,16.60
2015,07,04,07,07,16.60
2015,07,04,07,08,16.70
2015,07,04,07,09,16.70
2015,07,04,07,10,16.80
2015,07,04,07,11,16.80
2015,07,04,07,12,16.90
2015,07,04,07,13,16.90
2015,07,04,07,14,17.00
2015,07,04,07,15,17.00
2015,07,04,07,16,17.10
2015,07,04,07,17,17.10
2015,07,04,07,18,17.10
2015,07,04,07,19,17.20
2015,07,04,07,20,17.20
2015,07,04,07,21,17.30
2015,07,04,07,22,17.30
2015,07,04,07,23,17.40
2015,07,04,07,24,17.40
2015,07,04,07,25,17.50
2015,07,04,07,26,17.50
2015,07,04,07,27,17.60
2015,07,04,07,28,17.70
2015,07,04,07,29,17.70
2015,07,04,07,30,17.70
2015,07,04,07,31,17.80
2015,07,04,07,32,17.90
2015,07,04,07,33,17.90
2015,07,04,07,34,18.00
2015,07,04,07,35,18.10
2015,07,04,07,36,18.10
2015,07,04,07,37,18.20
2015,07,04,07,38,18.30
2015,07,04,07,39,18.30
2015,07,04,07,40,18.30
2015,07,04,07,41,18.40
2015,07,04,07,42,18.40
2015,07,04,07,43,18.50
2015,07,04,07,44,18.60
2015,07,04,07,45,18.60
2015,07,04,07,46,18.70
2015,07,04,07,47,18.80
2015,07,04,07,48,18.80
2015,07,04,07,49,18.80
2015,07,04,07,50,18.90
2015,07,04,07,51,18.90
2015,07,04,07,52,18.90
2015,07,04,07,53,19.00
2015,07,04,07,54,19.10
2015,07,04,07,55,19.20
2015,07,04,07,56,19.20
2015,07,04,07,57,19.30
2015,07,04,07,58,19.30
2015,07,04,07,59,19.40
2015,07,04,08,00,19.40
2015,07,04,08,01,19.50
2015,07,04,08,02,19.50
2015,07,04,08,03,19.60
2015,07,04,08,04,19.60
2015,07,04,08,05,19.70
2015,07,04,08,06,19.70
2015,07,04,08,07,19.70
2015,07,04,08,08,19.80
2015,07,04,08,09,19.80
2015,07,04,08,10,19.90
2015,07,04,08,11,19.90
2015,07,04,08,12,20.00
2015,07,04,08,13,20.10
2015,07,04,08,14,20.20
2015,07,04,08,15,20.20
2015,07,04,08,16,20.30
2015,07,04,08,17,20.30
2015,07,04,08,18,20.40
2015,07,04,08,19,20.40
2015,07,04,08,20,20.40
2015,07,04,08,21,20.50
2015,07,04,08,22,20.60
2015,07,04,08,23,20.60
2015,07,04,08,24,20.70
2015,07,04,08,25,20.80
2015,07,04,08,26,20.90
2015,07,04,08,27,21.00
2015,07,04,08,28,21.10
2015,07,04,08,29,21.10
2015,07,04,08,30,21.20
2015,07,04,08,31,21.30
2015,07,04,08,32,21.30
2015,07,04,08,33,21.30
2015,07,04,08,34,21.40
2015,07,04,08,35,21.40
2015,07,04,08,36,21.50
2015,07,04,08,37,21.50
2015,07,04,08,38,21.50
2015,07,04,08,39,21.60
2015,07,04,08,40,21.60
2015,07,04,08,41,21.60
2015,07,04,08,42,21.70
2015,07,04,08,43,21.70
2015,07,04,08,44,21.80
2015,07,04,08,45,21.90
2015,07,04,08,46,22.00
2015,07,04,08,47,22.10
2015,07,04,08,48,22.20
2015,07,04,08,49,22.30
2015,07,04,08,50,22.40
2015,07,04,08,51,22.50
2015,07,04,08,52,22.50
2015,07,04,08,53,22.60
2015,07,04,08,54,22.60
2015,07,04,08,55,22.60
2015,07,04,08,56,22.60
2015,07,04,08,57,22.60
2015,07,04,08,58,22.70
2015,07,04,08,59,22.80
2015,07,04,09,00,22.90
2015,07,04,09,01,23.00
2015,07,04,09,02,23.00
2015,07,04,09,03,23.10
2015,07,04,09,04,23.10
2015,07,04,09,05,23.20
2015,07,04,09,06,23.30
2015,07,04,09,07,23.30
2015,07,04,09,08,23.20
2015,07,04,09,09,23.00
2015,07,04,09,10,22.90
2015,07,04,09,11,22.80
2015,07,04,09,12,22.60
2015,07,04,09,13,22.50
2015,07,04,09,14,22.40
2015,07,04,09,15,22.30
2015,07,04,09,16,22.20
2015,07,04,09,17,22.20
2015,07,04,09,18,22.10
2015,07,04,09,19,22.10
2015,07,04,09,20,22.10
2015,07,04,09,21,22.10
2015,07,04,09,22,22.00
2015,07,04,09,23,21.90
2015,07,04,09,24,21.90
2015,07,04,09,25,21.80
2015,07,04,09,26,21.80
2015,07,04,09,27,21.80
2015,07,04,09,28,21.80
2015,07,04,09,29,21.80
2015,07,04,09,30,21.80
2015,07,04,09,31,21.80
2015,07,04,09,32,21.80
2015,07,04,09,33,21.80
2015,07,04,09,34,21.80
2015,07,04,09,35,21.80
2015,07,04,09,36,21.90
2015,07,04,09,37,21.90
2015,07,04,09,38,21.90
2015,07,04,09,39,21.90
2015,07,04,09,40,22.00
2015,07,04,09,41,22.00
2015,07,04,09,42,22.10
2015,07,04,09,43,22.10
2015,07,04,09,44,22.10
2015,07,04,09,45,22.10
2015,07,04,09,46,22.10
2015,07,04,09,47,22.10
2015,07,04,09,48,22.20
2015,07,04,09,49,22.20
2015,07,04,09,50,22.10
2015,07,04,09,51,22.10
2015,07,04,09,52,22.10
2015,07,04,09,53,22.10
2015,07,04,09,54,22.10
2015,07,04,09,55,22.10
2015,07,04,09,56,22.10
2015,07,04,09,57,22.20
2015,07,04,09,58,22.20
2015,07,04,09,59,22.20
2015,07,04,10,00,22.20
2015,07,04,10,01,22.20
2015,07,04,10,02,22.20
2015,07,04,10,03,22.10
2015,07,04,10,04,22.10
2015,07,04,10,05,22.10
2015,07,04,10,06,22.10
2015,07,04,10,07,22.10
2015,07,04,10,08,22.10
2015,07,04,10,09,22.10
2015,07,04,10,10,22.10
2015,07,04,10,11,22.10
2015,07,04,10,12,22.10
2015,07,04,10,13,22.10
2015,07,04,10,14,22.10
2015,07,04,10,15,22.10
2015,07,04,10,16,22.10
2015,07,04,10,17,22.20
2015,07,04,10,18,22.20
2015,07,04,10,19,22.20
2015,07,04,10,20,22.30
2015,07,04,10,21,22.30
2015,07,04,10,22,22.40
2015,07,04,10,23,22.40
2015,07,04,10,24,22.40
2015,07,04,10,25,22.50
2015,07,04,10,26,22.50
2015,07,04,10,27,22.60
2015,07,04,10,28,22.60
2015,07,04,10,29,22.70
2015,07,04,10,30,22.70
2015,07,04,10,31,22.70
2015,07,04,10,32,22.80
2015,07,04,10,33,22.90
2015,07,04,10,34,23.00
2015,07,04,10,35,23.10
2015,07,04,10,36,23.00
2015,07,04,10,37,23.00
2015,07,04,10,38,23.00
2015,07,04,10,39,23.00
2015,07,04,10,40,23.00
2015,07,04,10,41,22.90
2015,07,04,10,42,22.90
2015,07,04,10,43,23.00
2015,07,04,10,44,23.00
2015,07,04,10,45,23.10
2015,07,04,10,46,23.10
2015,07,04,10,47,23.00
2015,07,04,10,48,23.00
2015,07,04,10,49,22.90
2015,07,04,10,50,22.80
2015,07,04,10,51,22.80
2015,07,04,10,52,22.90
2015,07,04,10,53,23.00
2015,07,04,10,54,23.00
2015,07,04,10,55,23.00
2015,07,04,10,56,23.00
2015,07,04,10,57,22.90
2015,07,04,10,58,22.90
2015,07,04,10,59,22.80
2015,07,04,11,00,22.80
2015,07,04,11,01,22.80
2015,07,04,11,02,22.90
2015,07,04,11,03,22.90
2015,07,04,11,04,23.00
2015,07,04,11,05,23.10
2015,07,04,11,06,23.20
2015,07,04,11,07,23.20
2015,07,04,11,08,23.20
2015,07,04,11,09,23.20
2015,07,04,11,10,23.10
2015,07,04,11,11,23.10
2015,07,04,11,12,23.10
2015,07,04,11,13,23.10
2015,07,04,11,14,23.10
2015,07,04,11,15,23.00
2015,07,04,11,16,22.90
2015,07,04,11,17,22.90
2015,07,04,11,18,23.00
2015,07,04,11,19,23.00
2015,07,04,11,20,23.00
2015,07,04,11,21,23.00
2015,07,04,11,22,23.00
2015,07,04,11,23,23.10
2015,07,04,11,24,23.20
2015,07,04,11,25,23.40
2015,07,04,11,26,23.50
2015,07,04,11,27,23.60
2015,07,04,11,28,23.70
2015,07,04,11,29,23.60
2015,07,04,11,30,23.60
2015,07,04,11,31,23.60
2015,07,04,11,32,23.50
2015,07,04,11,33,23.40
2015,07,04,11,34,23.40
2015,07,04,11,35,23.30
2015,07,04,11,36,23.40
2015,07,04,11,37,23.40
2015,07,04,11,38,23.40
2015,07,04,11,39,23.30
2015,07,04,11,40,23.30
2015,07,04,11,41,23.20
2015,07,04,11,42,23.30
2015,07,04,11,43,23.30
2015,07,04,11,44,23.40
2015,07,04,11,45,23.50
2015,07,04,11,46,23.50
2015,07,04,11,47,23.40
2015,07,04,11,48,23.30
2015,07,04,11,49,23.30
2015,07,04,11,50,23.30
2015,07,04,11,51,23.30
2015,07,04,11,52,23.30
2015,07,04,11,53,23.30
2015,07,04,11,54,23.30
2015,07,04,11,55,23.40
2015,07,04,11,56,23.50
2015,07,04,11,57,23.50
2015,07,04,11,58,23.60
2015,07,04,11,59,23.60
2015,07,04,12,00,23.70
2015,07,04,12,01,23.70
2015,07,04,12,02,23.70
2015,07,04,12,03,23.70
2015,07,04,12,04,23.80
2015,07,04,12,05,23.80
2015,07,04,12,06,23.80
2015,07,04,12,07,23.90
2015,07,04,12,08,23.90
2015,07,04,12,09,23.90
2015,07,04,12,10,23.90
2015,07,04,12,11,24.00
2015,07,04,12,12,24.00
2015,07,04,12,13,24.10
2015,07,04,12,14,24.20
2015,07,04,12,15,24.20
2015,07,04,12,16,24.30
2015,07,04,12,17,24.40
2015,07,04,12,18,24.50
2015,07,04,12,19,24.60
2015,07,04,12,20,24.80
2015,07,04,12,21,24.90
2015,07,04,12,22,25.00
2015,07,04,12,23,25.10
2015,07,04,12,24,25.30
2015,07,04,12,25,25.30
2015,07,04,12,26,25.30
2015,07,04,12,27,25.30
2015,07,04,12,28,25.30
2015,07,04,12,29,25.30
2015,07,04,12,30,25.40
2015,07,04,12,31,25.50
2015,07,04,12,32,25.60
2015,07,04,12,33,25.70
2015,07,04,12,34,25.70
2015,07,04,12,35,25.70
2015,07,04,12,36,25.70
2015,07,04,12,37,25.80
2015,07,04,12,38,25.80
2015,07,04,12,39,25.90
2015,07,04,12,40,26.00
2015,07,04,12,41,26.00
2015,07,04,12,42,26.00
2015,07,04,12,43,26.00
2015,07,04,12,44,26.00
2015,07,04,12,45,26.00
2015,07,04,12,46,26.00
2015,07,04,12,47,26.10
2015,07,04,12,48,26.20
2015,07,04,12,49,26.30
2015,07,04,12,50,26.30
2015,07,04,12,51,26.40
2015,07,04,12,52,26.40
2015,07,04,12,53,26.50
2015,07,04,12,54,26.50
2015,07,04,12,55,26.50
2015,07,04,12,56,26.50
2015,07,04,12,57,26.60
2015,07,04,12,58,26.60
2015,07,04,12,59,26.60
2015,07,04,13,00,26.60
2015,07,04,13,01,26.70
2015,07,04,13,02,26.70
2015,07,04,13,03,26.70
2015,07,04,13,04,26.70
2015,07,04,13,05,26.60
2015,07,04,13,06,26.60
2015,07,04,13,07,26.60
2015,07,04,13,08,26.70
2015,07,04,13,09,26.80
2015,07,04,13,10,26.80
2015,07,04,13,11,26.70
2015,07,04,13,12,26.60
2015,07,04,13,13,26.50
2015,07,04,13,14,26.50
2015,07,04,13,15,26.40
2015,07,04,13,16,26.40
2015,07,04,13,17,26.40
2015,07,04,13,18,26.50
2015,07,04,13,19,26.60
2015,07,04,13,20,26.50
2015,07,04,13,21,26.50
2015,07,04,13,22,26.60
2015,07,04,13,23,26.60
2015,07,04,13,24,26.70
2015,07,04,13,25,26.80
2015,07,04,13,26,26.90
2015,07,04,13,27,26.90
2015,07,04,13,28,26.90
2015,07,04,13,29,26.90
2015,07,04,13,30,26.90
2015,07,04,13,31,26.90
2015,07,04,13,32,26.90
2015,07,04,13,33,26.90
2015,07,04,13,34,26.90
2015,07,04,13,35,26.90
2015,07,04,13,36,26.90
2015,07,04,13,37,26.80
2015,07,04,13,38,26.80
2015,07,04,13,39,26.80
2015,07,04,13,40,26.80
2015,07,04,13,41,26.90
2015,07,04,13,42,27.00
2015,07,04,13,43,27.20
2015,07,04,13,44,27.20
2015,07,04,13,45,27.30
2015,07,04,13,46,27.40
2015,07,04,13,47,27.40
2015,07,04,13,48,27.40
2015,07,04,13,49,27.40
2015,07,04,13,50,27.30
2015,07,04,13,51,27.20
2015,07,04,13,52,27.20
2015,07,04,13,53,27.20
2015,07,04,13,54,27.20
2015,07,04,13,55,27.30
2015,07,04,13,56,27.30
2015,07,04,13,57,27.40
2015,07,04,13,58,27.40
2015,07,04,13,59,27.40
2015,07,04,14,00,27.40
2015,07,04,14,01,27.30
2015,07,04,14,02,27.30
2015,07,04,14,03,27.20
2015,07,04,14,04,27.10
2015,07,04,14,05,27.10
2015,07,04,14,06,27.00
2015,07,04,14,07,26.90
2015,07,04,14,08,27.00
2015,07,04,14,09,27.00
2015,07,04,14,10,26.90
2015,07,04,14,11,26.90
2015,07,04,14,12,26.70
2015,07,04,14,13,26.70
2015,07,04,14,14,26.60
2015,07,04,14,15,26.60
2015,07,04,14,16,26.50
2015,07,04,14,17,26.40
2015,07,04,14,18,26.60
2015,07,04,14,19,26.70
2015,07,04,14,20,26.80
2015,07,04,14,21,26.80
2015,07,04,14,22,26.70
2015,07,04,14,23,26.60
2015,07,04,14,24,26.60
2015,07,04,14,25,26.60
2015,07,04,14,26,26.50
2015,07,04,14,27,26.50
2015,07,04,14,28,26.40
2015,07,04,14,29,26.30
2015,07,04,14,30,26.30
2015,07,04,14,31,26.20
2015,07,04,14,32,26.10
2015,07,04,14,33,26.10
2015,07,04,14,34,26.10
2015,07,04,14,35,26.10
2015,07,04,14,36,26.20
2015,07,04,14,37,26.20
2015,07,04,14,38,26.30
2015,07,04,14,39,26.30
2015,07,04,14,40,26.40
2015,07,04,14,41,26.40
2015,07,04,14,42,26.50
2015,07,04,14,43,26.50
2015,07,04,14,44,26.60
2015,07,04,14,45,26.60
2015,07,04,14,46,26.60
2015,07,04,14,47,26.60
2015,07,04,14,48,26.50
2015,07,04,14,49,26.50
2015,07,04,14,50,26.50
2015,07,04,14,51,26.50
2015,07,04,14,52,26.50
2015,07,04,14,53,26.50
2015,07,04,14,54,26.40
2015,07,04,14,55,26.40
2015,07,04,14,56,26.40
2015,07,04,14,57,26.40
2015,07,04,14,58,26.40
2015,07,04,14,59,26.40
2015,07,04,15,00,26.40
2015,07,04,15,01,26.40
2015,07,04,15,02,26.50
2015,07,04,15,03,26.50
2015,07,04,15,04,26.40
2015,07,04,15,05,26.30
2015,07,04,15,06,26.30
2015,07,04,15,07,26.20
2015,07,04,15,08,26.10
2015,07,04,15,09,26.10
2015,07,04,15,10,26.20
2015,07,04,15,11,26.20
2015,07,04,15,12,26.20
2015,07,04,15,13,26.10
2015,07,04,15,14,26.10
2015,07,04,15,15,26.20
2015,07,04,15,16,26.20
2015,07,04,15,17,26.20
2015,07,04,15,18,26.30
2015,07,04,15,19,26.30
2015,07,04,15,20,26.40
2015,07,04,15,21,26.30
2015,07,04,15,22,26.30
2015,07,04,15,23,26.20
2015,07,04,15,24,26.10
2015,07,04,15,25,26.20
2015,07,04,15,26,26.20
2015,07,04,15,27,26.10
2015,07,04,15,28,26.00
2015,07,04,15,29,25.90
2015,07,04,15,30,25.90
2015,07,04,15,31,25.90
2015,07,04,15,32,25.90
2015,07,04,15,33,26.00
2015,07,04,15,34,26.10
2015,07,04,15,35,26.10
2015,07,04,15,36,26.10
2015,07,04,15,37,26.20
2015,07,04,15,38,26.20
2015,07,04,15,39,26.20
2015,07,04,15,40,26.10
2015,07,04,15,41,26.10
2015,07,04,15,42,26.10
2015,07,04,15,43,26.10
2015,07,04,15,44,26.00
2015,07,04,15,45,25.90
2015,07,04,15,46,25.90
2015,07,04,15,47,25.90
2015,07,04,15,48,25.90
2015,07,04,15,49,26.00
2015,07,04,15,50,26.10
2015,07,04,15,51,26.20
2015,07,04,15,52,26.20
2015,07,04,15,53,26.20
2015,07,04,15,54,26.30
2015,07,04,15,55,26.30
2015,07,04,15,56,26.30
2015,07,04,15,57,26.30
2015,07,04,15,58,26.20
2015,07,04,15,59,26.20
2015,07,04,16,00,26.10
2015,07,04,16,01,26.10
2015,07,04,16,02,26.10
2015,07,04,16,03,26.10
2015,07,04,16,04,26.10
2015,07,04,16,05,26.00
2015,07,04,16,06,26.00
2015,07,04,16,07,26.00
2015,07,04,16,08,26.00
2015,07,04,16,09,25.90
2015,07,04,16,10,25.90
2015,07,04,16,11,25.90
2015,07,04,16,12,25.90
2015,07,04,16,13,25.80
2015,07,04,16,14,25.80
2015,07,04,16,15,25.80
2015,07,04,16,16,25.80
2015,07,04,16,17,25.90
2015,07,04,16,18,25.80
2015,07,04,16,19,25.90
2015,07,04,16,20,25.90
2015,07,04,16,21,25.90
2015,07,04,16,22,25.90
2015,07,04,16,23,25.90
2015,07,04,16,24,26.00
2015,07,04,16,25,26.00
2015,07,04,16,26,26.00
2015,07,04,16,27,26.00
2015,07,04,16,28,26.00
2015,07,04,16,29,26.00
2015,07,04,16,30,26.00
2015,07,04,16,31,25.90
2015,07,04,16,32,25.90
2015,07,04,16,33,25.80
2015,07,04,16,34,25.70
2015,07,04,16,35,25.70
2015,07,04,16,36,25.70
2015,07,04,16,37,25.70
2015,07,04,16,38,25.70
2015,07,04,16,39,25.70
2015,07,04,16,40,25.80
2015,07,04,16,41,25.70
2015,07,04,16,42,25.70
2015,07,04,16,43,25.70
2015,07,04,16,44,25.70
2015,07,04,16,45,25.70
2015,07,04,16,46,25.70
2015,07,04,16,47,25.70
2015,07,04,16,48,25.80
2015,07,04,16,49,25.80
2015,07,04,16,50,25.90
2015,07,04,16,51,26.00
2015,07,04,16,52,26.10
2015,07,04,16,53,26.20
2015,07,04,16,54,26.30
2015,07,04,16,55,26.30
2015,07,04,16,56,26.40
2015,07,04,16,57,26.50
2015,07,04,16,58,26.60
2015,07,04,16,59,26.50
2015,07,04,17,00,26.50
2015,07,04,17,01,26.60
2015,07,04,17,02,26.70
2015,07,04,17,03,26.70
2015,07,04,17,04,26.80
2015,07,04,17,05,26.90
2015,07,04,17,06,26.90
2015,07,04,17,07,26.90
2015,07,04,17,08,26.80
2015,07,04,17,09,26.80
2015,07,04,17,10,26.80
2015,07,04,17,11,26.80
2015,07,04,17,12,26.80
2015,07,04,17,13,26.80
2015,07,04,17,14,26.70
2015,07,04,17,15,26.70
2015,07,04,17,16,26.60
2015,07,04,17,17,26.60
2015,07,04,17,18,26.60
2015,07,04,17,19,26.50